There are multiple Weather-warnings   Click here for more information


Meteo18 Weather Cam more information Meteo18 Weather Cam


Thunder radar more information blitzortung!


warning for Snow/Ice more information rain snow radar


Visit our other weather sites:

Template documentation
and downloads

And another site



Weather Underground History page Text

Daily Summary for December 6, 2017 Units:  Metric    English   Both
« Previous Day
Next Day »
Daily Weekly Monthly Yearly Custom
  High: Low: Average:
Temperature: -17.8 °C -18.6 °C -17.2 °C
Dew Point: -17.8 °C -18.8 °C -17.6 °C
Humidity: Humidity % 92 % 95 %
Wind Speed: 0 km/h 0 km/h 1.6 km/h
Wind Gust: 0 km/h - -
Wind:- - SSE
Pressure: 0 hPa 34865.6 hPa -
Precipitation: 7.62 mm    
Historical Graphs
 
 
Tabular Data for December 6, 2017
Time Temperature Dew Point Pressure Wind Wind Speed Wind Gust Humidity Rainfall Rate (Hourly)
-17.8 °C -17.8 °C 0 hPa Calm     Humidity % 0 mm
00:02 -17.5 °C -17.8 °C 35150.1 hPa Calm     96 % 7.62 mm
00:07 -17.6 °C -17.9 °C 35150.1 hPa Calm     96 % 7.62 mm
00:12 -17.6 °C -17.9 °C 35150.1 hPa Calm     96 % 7.62 mm
00:17 -17.7 °C -18 °C 35150.1 hPa Calm     96 % 7.62 mm
00:22 -17.7 °C -18 °C 35150.1 hPa Calm     96 % 7.62 mm
00:32 -17.8 °C -18.1 °C 35150.1 hPa Calm   2.6 km/h 96 % 7.62 mm
00:42 -17.9 °C -18.2 °C 35150.1 hPa Calm     96 % 7.62 mm
00:47 -17.9 °C -18.3 °C 35150.1 hPa Calm     96 % 7.62 mm
00:52 -18 °C -18.3 °C 35150.1 hPa Calm   2.6 km/h 96 % 7.62 mm
00:57 -18.1 °C -18.4 °C 35150.1 hPa Calm   2.6 km/h 96 % 7.62 mm
01:02 -18.2 °C -18.5 °C 35139.9 hPa Calm   2.6 km/h 96 % 0 mm
01:07 -18.2 °C -18.6 °C 35139.9 hPa Calm   2.6 km/h 96 % 0 mm
01:12 -18.2 °C -18.4 °C 35139.9 hPa NNW 2.6 km/h 2.6 km/h 97 % 0 mm
01:22 -18.3 °C -18.5 °C 35139.9 hPa Calm   2.6 km/h 97 % 0 mm
01:32 -18.4 °C -18.6 °C 35139.9 hPa Calm   2.6 km/h 97 % 0 mm
01:37 -18.4 °C -18.6 °C 35129.8 hPa Calm   2.6 km/h 97 % 0 mm
01:42 -18.4 °C -18.7 °C 35129.8 hPa Calm   2.6 km/h 97 % 0 mm
01:47 -18.5 °C -18.7 °C 35129.8 hPa Calm     97 % 0 mm
01:52 -18.6 °C -18.8 °C 35129.8 hPa Calm     97 % 0 mm
02:02 -18.6 °C -18.8 °C 35129.8 hPa Calm     97 % 0 mm
02:07 -18.6 °C -18.8 °C 35129.8 hPa Calm   2.6 km/h 97 % 0 mm
02:12 -18.6 °C -18.8 °C 35129.8 hPa North 2.6 km/h 2.6 km/h 97 % 0 mm
02:17 -18.5 °C -18.7 °C 35129.8 hPa Calm   2.6 km/h 97 % 0 mm
02:22 -18.5 °C -18.7 °C 35129.8 hPa Calm   2.6 km/h 97 % 0 mm
02:27 -18.6 °C -18.8 °C 35129.8 hPa Calm   2.6 km/h 97 % 0 mm
02:32 -18.6 °C -18.8 °C 35129.8 hPa Calm   2.6 km/h 97 % 0 mm
02:37 -18.6 °C -18.8 °C 35129.8 hPa Calm   2.6 km/h 97 % 0 mm
02:42 -18.6 °C -18.8 °C 35116.2 hPa Calm   2.6 km/h 97 % 0 mm
02:47 -18.4 °C -18.7 °C 35116.2 hPa Calm   2.6 km/h 97 % 0 mm
02:52 -18.4 °C -18.7 °C 35116.2 hPa Calm     97 % 0 mm
02:57 -18.5 °C -18.7 °C 35116.2 hPa Calm     97 % 0 mm
03:02 -18.4 °C -18.7 °C 35116.2 hPa Calm     97 % 0 mm
03:12 -18.3 °C -18.6 °C 35116.2 hPa Calm     97 % 0 mm
03:17 -18.4 °C -18.6 °C 35116.2 hPa Calm     97 % 0 mm
03:27 -18.4 °C -18.6 °C 35116.2 hPa Calm     97 % 0 mm
03:37 -18.4 °C -18.6 °C 35116.2 hPa Calm     97 % 0 mm
03:42 -18.2 °C -18.4 °C 35116.2 hPa Calm     97 % 0 mm
03:47 -18.1 °C -18.3 °C 35116.2 hPa Calm     97 % 0 mm
03:52 -18.2 °C -18.3 °C 35116.2 hPa Calm     98 % 0 mm
03:57 -18.2 °C -18.4 °C 35116.2 hPa Calm     97 % 0 mm
04:02 -18.4 °C -18.6 °C 35116.2 hPa Calm     97 % 0 mm
04:07 -18.3 °C -18.6 °C 35116.2 hPa Calm   2.6 km/h 97 % 0 mm
04:12 -18.1 °C -18.3 °C 35116.2 hPa Calm   2.6 km/h 97 % 0 mm
04:17 -17.9 °C -18.1 °C 35116.2 hPa Calm   2.6 km/h 98 % 0 mm
04:22 -17.9 °C -18.1 °C 35116.2 hPa Calm   2.6 km/h 98 % 0 mm
04:27 -17.9 °C -18.1 °C 35116.2 hPa East 2.6 km/h 2.6 km/h 98 % 0 mm
04:32 -17.7 °C -17.9 °C 35106 hPa East 2.6 km/h 5.1 km/h 98 % 0 mm
04:37 -17.7 °C -17.9 °C 35106 hPa Calm   5.1 km/h 98 % 0 mm
04:42 -17.7 °C -17.8 °C 35106 hPa Calm   5.1 km/h 98 % 0 mm
04:47 -17.6 °C -17.8 °C 35106 hPa East 2.6 km/h 10.3 km/h 98 % 0 mm
04:52 -17.6 °C -17.7 °C 35106 hPa SE 5.1 km/h 10.3 km/h 98 % 0 mm
04:57 -17.6 °C -17.7 °C 35106 hPa Calm   10.3 km/h 98 % 0 mm
05:02 -17.6 °C -17.7 °C 35106 hPa Calm   5.1 km/h 98 % 0 mm
05:07 -17.6 °C -17.8 °C 35106 hPa Calm   5.1 km/h 98 % 0 mm
05:17 -17.6 °C -17.8 °C 35106 hPa Calm   2.6 km/h 97 % 0 mm
05:22 -17.6 °C -17.8 °C 35106 hPa Calm     97 % 0 mm
05:32 -17.6 °C -17.8 °C 35095.9 hPa Calm     97 % 0 mm
05:42 -17.6 °C -17.8 °C 35095.9 hPa Calm     97 % 0 mm
05:47 -17.6 °C -17.8 °C 35095.9 hPa Calm     97 % 0 mm
05:52 -17.6 °C -17.8 °C 35095.9 hPa Calm     97 % 0 mm
06:02 -17.7 °C -17.9 °C 35095.9 hPa Calm     97 % 0 mm
06:12 -17.7 °C -17.9 °C 35095.9 hPa Calm     97 % 0 mm
06:17 -17.7 °C -17.9 °C 35095.9 hPa Calm     97 % 0 mm
06:22 -17.7 °C -17.9 °C 35095.9 hPa Calm     97 % 0 mm
06:32 -17.7 °C -17.9 °C 35095.9 hPa Calm     97 % 0 mm
06:37 -17.8 °C -18 °C 35095.9 hPa Calm     97 % 0 mm
06:42 -17.7 °C -17.9 °C 35095.9 hPa Calm     97 % 0 mm
06:47 -17.7 °C -17.9 °C 35095.9 hPa Calm     97 % 0 mm
06:52 -17.7 °C -17.9 °C 35095.9 hPa Calm     97 % 0 mm
07:02 -17.7 °C -17.9 °C 35095.9 hPa Calm     97 % 0 mm
07:12 -17.7 °C -17.9 °C 35082.3 hPa Calm     97 % 0 mm
07:17 -17.7 °C -17.9 °C 35082.3 hPa Calm     97 % 0 mm
07:22 -17.7 °C -17.9 °C 35082.3 hPa Calm     97 % 0 mm
07:32 -17.7 °C -17.9 °C 35082.3 hPa Calm     97 % 0 mm
07:42 -17.8 °C -18.1 °C 35082.3 hPa NNE 5.1 km/h   97 % 0 mm
07:52 -17.7 °C -17.9 °C 35082.3 hPa North 2.6 km/h 5.1 km/h 97 % 0 mm
07:57 -17.7 °C -17.9 °C 35082.3 hPa Calm   5.1 km/h 97 % 0 mm
08:02 -17.7 °C -17.9 °C 35082.3 hPa Calm   2.6 km/h 97 % 0 mm
08:07 -17.7 °C -17.9 °C 35072.2 hPa Calm   2.6 km/h 97 % 0 mm
08:12 -17.7 °C -17.9 °C 35072.2 hPa Calm   2.6 km/h 97 % 0 mm
08:17 -17.7 °C -17.9 °C 35082.3 hPa Calm   2.6 km/h 97 % 0 mm
08:22 -17.7 °C -17.9 °C 35082.3 hPa Calm   2.6 km/h 97 % 0 mm
08:32 -17.7 °C -17.9 °C 35082.3 hPa Calm   2.6 km/h 97 % 0 mm
08:42 -17.7 °C -17.9 °C 35082.3 hPa Calm   2.6 km/h 97 % 0 mm
08:47 -17.7 °C -17.9 °C 35082.3 hPa Calm     97 % 0 mm
08:57 -17.8 °C -18.1 °C 35082.3 hPa Calm     97 % 0 mm
09:07 -17.8 °C -18.1 °C 35072.2 hPa Calm   2.6 km/h 97 % 0 mm
09:12 -17.8 °C -18.1 °C 35082.3 hPa Calm   2.6 km/h 97 % 0 mm
09:17 -17.8 °C -18.1 °C 35072.2 hPa Calm   2.6 km/h 97 % 0 mm
09:22 -17.8 °C -18.1 °C 35072.2 hPa Calm   2.6 km/h 97 % 0 mm
09:32 -17.8 °C -18.1 °C 35072.2 hPa WNW 2.6 km/h 2.6 km/h 97 % 0 mm
09:42 -17.7 °C -17.9 °C 35072.2 hPa Calm   2.6 km/h 97 % 0 mm
09:52 -17.7 °C -17.9 °C 35072.2 hPa Calm   2.6 km/h 97 % 0 mm
09:57 -17.6 °C -17.8 °C 35072.2 hPa Calm     97 % 0 mm
10:02 -17.6 °C -17.7 °C 35072.2 hPa Calm     98 % 0 mm
10:12 -17.6 °C -17.7 °C 35072.2 hPa Calm   2.6 km/h 98 % 0 mm
10:17 -17.4 °C -17.6 °C 35072.2 hPa Calm   2.6 km/h 98 % 7.62 mm
10:22 -17.4 °C -17.6 °C 35072.2 hPa Calm   2.6 km/h 98 % 7.62 mm
10:32 -17.3 °C -17.4 °C 35072.2 hPa Calm     98 % 7.62 mm
10:37 -17.2 °C -17.4 °C 35072.2 hPa Calm     98 % 7.62 mm
10:42 -17.2 °C -17.3 °C 35082.3 hPa Calm     98 % 7.62 mm
10:47 -17.1 °C -17.3 °C 35082.3 hPa Calm     98 % 7.62 mm
10:52 -17.1 °C -17.3 °C 35082.3 hPa Calm     98 % 7.62 mm
11:02 -17.1 °C -17.3 °C 35082.3 hPa Calm     98 % 7.62 mm
11:12 -17.1 °C -17.3 °C 35072.2 hPa Calm   2.6 km/h 97 % 7.62 mm
11:17 -17.1 °C -17.3 °C 35072.2 hPa Calm   2.6 km/h 97 % 0 mm
11:22 -17 °C -17.2 °C 35072.2 hPa Calm   2.6 km/h 97 % 0 mm
11:27 -17 °C -17.2 °C 35072.2 hPa South 2.6 km/h 5.1 km/h 97 % 0 mm
11:32 -16.9 °C -17.2 °C 35072.2 hPa Calm   5.1 km/h 97 % 0 mm
11:37 -16.9 °C -17.2 °C 35058.6 hPa Calm   5.1 km/h 97 % 0 mm
11:42 -16.9 °C -17.1 °C 35058.6 hPa Calm   5.1 km/h 97 % 0 mm
11:47 -16.9 °C -17.1 °C 35048.5 hPa SSE 2.6 km/h 5.1 km/h 97 % 0 mm
11:52 -16.9 °C -17.1 °C 35048.5 hPa Calm   5.1 km/h 97 % 0 mm
12:02 -16.8 °C -17.1 °C 35048.5 hPa Calm   7.7 km/h 97 % 0 mm
12:12 -16.8 °C -17 °C 35038.3 hPa SSE 5.1 km/h 7.7 km/h 97 % 0 mm
12:17 -16.8 °C -17 °C 35038.3 hPa SSE 2.6 km/h 10.3 km/h 97 % 0 mm
12:22 -16.8 °C -17 °C 35038.3 hPa Calm   10.3 km/h 97 % 0 mm
12:32 -16.7 °C -16.9 °C 35038.3 hPa Calm   7.7 km/h 97 % 0 mm
12:42 -16.7 °C -16.9 °C 35038.3 hPa ESE 2.6 km/h 7.7 km/h 97 % 0 mm
12:47 -16.7 °C -16.9 °C 35038.3 hPa Calm   7.7 km/h 97 % 0 mm
12:52 -16.6 °C -16.8 °C 35038.3 hPa Calm   5.1 km/h 97 % 0 mm
12:57 -16.6 °C -16.8 °C 35024.8 hPa SE 2.6 km/h 7.7 km/h 97 % 0 mm
13:02 -16.6 °C -16.8 °C 35024.8 hPa SE 7.7 km/h 7.7 km/h 97 % 0 mm
13:07 -16.6 °C -16.8 °C 35024.8 hPa SE 2.6 km/h 7.7 km/h 97 % 0 mm
13:12 -16.6 °C -16.8 °C 35024.8 hPa ESE 2.6 km/h 7.7 km/h 97 % 0 mm
13:17 -16.6 °C -16.8 °C 35014.6 hPa SSE 2.6 km/h 12.9 km/h 97 % 0 mm
13:22 -16.6 °C -16.8 °C 35014.6 hPa ESE 5.1 km/h 12.9 km/h 97 % 0 mm
13:27 -16.5 °C -16.7 °C 35014.6 hPa ESE 2.6 km/h 12.9 km/h 97 % 0 mm
13:32 -16.6 °C -16.8 °C 35014.6 hPa ESE 2.6 km/h 10.3 km/h 97 % 0 mm
13:42 -16.6 °C -16.8 °C 35001.1 hPa SE 2.6 km/h 15.6 km/h 97 % 0 mm
13:47 -16.6 °C -16.8 °C 35001.1 hPa Calm   15.6 km/h 97 % 0 mm
13:52 -16.5 °C -16.7 °C 35001.1 hPa SE 2.6 km/h 12.9 km/h 97 % 0 mm
13:57 -16.5 °C -16.7 °C 35001.1 hPa SE 7.7 km/h 12.9 km/h 97 % 0 mm
14:02 -16.4 °C -16.7 °C 35001.1 hPa Calm   10.3 km/h 97 % 0 mm
14:07 -16.4 °C -16.8 °C 35001.1 hPa Calm   10.3 km/h 96 % 0 mm
14:12 -16.4 °C -16.8 °C 35001.1 hPa SSE 2.6 km/h 10.3 km/h 96 % 0 mm
14:17 -16.4 °C -16.8 °C 35001.1 hPa Calm   10.3 km/h 96 % 0 mm
14:22 -16.4 °C -16.8 °C 35001.1 hPa Calm   10.3 km/h 96 % 0 mm
14:27 -16.4 °C -16.8 °C 34990.9 hPa Calm   10.3 km/h 96 % 0 mm
14:32 -16.4 °C -16.8 °C 34990.9 hPa SE 7.7 km/h 10.3 km/h 96 % 0 mm
14:42 -16.5 °C -16.9 °C 34990.9 hPa ESE 5.1 km/h 12.9 km/h 95 % 0 mm
14:47 -16.5 °C -16.9 °C 34990.9 hPa Calm   12.9 km/h 95 % 0 mm
14:52 -16.5 °C -17 °C 34980.8 hPa East 2.6 km/h 12.9 km/h 94 % 0 mm
14:57 -16.4 °C -16.9 °C 34980.8 hPa SSE 2.6 km/h 7.7 km/h 94 % 0 mm
15:02 -16.5 °C -17 °C 34980.8 hPa ESE 7.7 km/h 7.7 km/h 94 % 0 mm
15:07 -16.5 °C -17 °C 34980.8 hPa Calm   10.3 km/h 94 % 0 mm
15:12 -16.5 °C -17 °C 34980.8 hPa South 2.6 km/h 10.3 km/h 94 % 0 mm
15:17 -16.5 °C -17.1 °C 34980.8 hPa SSE 2.6 km/h 10.3 km/h 93 % 0 mm
15:22 -16.5 °C -17.1 °C 34980.8 hPa Calm   10.3 km/h 93 % 0 mm
15:27 -16.5 °C -17.1 °C 34980.8 hPa SE 5.1 km/h 10.3 km/h 93 % 0 mm
15:32 -16.5 °C -17.1 °C 34980.8 hPa East 2.6 km/h 15.6 km/h 93 % 0 mm
15:42 -16.5 °C -17.1 °C 34980.8 hPa SE 5.1 km/h 15.6 km/h 93 % 0 mm
15:47 -16.6 °C -17.1 °C 34980.8 hPa ESE 5.1 km/h 12.9 km/h 93 % 0 mm
15:52 -16.5 °C -17.1 °C 34980.8 hPa Calm   12.9 km/h 93 % 0 mm
15:57 -16.5 °C -17.1 °C 34967.2 hPa East 5.1 km/h 12.9 km/h 93 % 0 mm
16:02 -16.5 °C -17.1 °C 34967.2 hPa East 2.6 km/h 10.3 km/h 93 % 0 mm
16:07 -16.5 °C -17.1 °C 34967.2 hPa East 2.6 km/h 5.1 km/h 93 % 0 mm
16:12 -16.5 °C -17.1 °C 34967.2 hPa SE 2.6 km/h 10.3 km/h 93 % 0 mm
16:17 -16.5 °C -17.1 °C 34967.2 hPa SE 2.6 km/h 10.3 km/h 93 % 0 mm
16:22 -16.6 °C -17.1 °C 34967.2 hPa SE 2.6 km/h 10.3 km/h 93 % 0 mm
16:27 -16.6 °C -17.2 °C 34967.2 hPa SE 2.6 km/h 15.6 km/h 92 % 0 mm
16:32 -16.5 °C -17.1 °C 34967.2 hPa Calm   15.6 km/h 93 % 0 mm
16:42 -16.6 °C -17.2 °C 34967.2 hPa South 7.7 km/h 10.3 km/h 92 % 0 mm
16:47 -16.6 °C -17.2 °C 34967.2 hPa SSE 5.1 km/h 12.9 km/h 92 % 0 mm
16:52 -16.6 °C -17.2 °C 34967.2 hPa Calm   12.9 km/h 92 % 0 mm
17:02 -16.6 °C -17.2 °C 34967.2 hPa Calm   10.3 km/h 92 % 0 mm
17:07 -16.6 °C -17.2 °C 34967.2 hPa Calm   5.1 km/h 92 % 0 mm
17:12 -16.6 °C -17.1 °C 34967.2 hPa Calm   5.1 km/h 93 % 0 mm
17:17 -16.6 °C -17.1 °C 34957.1 hPa Calm   5.1 km/h 93 % 0 mm
17:22 -16.6 °C -17.1 °C 34957.1 hPa SE 2.6 km/h 7.7 km/h 93 % 0 mm
17:32 -16.6 °C -17.2 °C 34957.1 hPa ESE 5.1 km/h 10.3 km/h 93 % 0 mm
17:37 -16.6 °C -17.1 °C 34957.1 hPa Calm   10.3 km/h 93 % 0 mm
17:42 -16.6 °C -17.3 °C 34957.1 hPa SE 2.6 km/h 10.3 km/h 92 % 0 mm
17:47 -16.7 °C -17.3 °C 34957.1 hPa SE 5.1 km/h 12.9 km/h 92 % 0 mm
17:52 -16.6 °C -17.3 °C 34957.1 hPa Calm   15.6 km/h 92 % 0 mm
17:57 -16.6 °C -17.3 °C 34946.9 hPa SE 5.1 km/h 15.6 km/h 92 % 0 mm
18:02 -16.6 °C -17.3 °C 34946.9 hPa Calm   15.6 km/h 92 % 0 mm
18:12 -16.6 °C -17.3 °C 34946.9 hPa SE 2.6 km/h 10.3 km/h 92 % 0 mm
18:17 -16.6 °C -17.3 °C 34946.9 hPa Calm   10.3 km/h 92 % 0 mm
18:22 -16.6 °C -17.3 °C 34946.9 hPa South 5.1 km/h 10.3 km/h 92 % 0 mm
18:32 -16.7 °C -17.3 °C 34946.9 hPa SE 2.6 km/h 10.3 km/h 92 % 0 mm
18:42 -16.6 °C -17.3 °C 34946.9 hPa SSE 2.6 km/h 10.3 km/h 92 % 0 mm
18:47 -16.6 °C -17.3 °C 34946.9 hPa SE 2.6 km/h 10.3 km/h 92 % 0 mm
18:52 -16.6 °C -17.3 °C 34933.4 hPa SSE 2.6 km/h 7.7 km/h 92 % 0 mm
18:57 -16.6 °C -17.3 °C 34933.4 hPa ESE 5.1 km/h 7.7 km/h 92 % 0 mm
19:02 -16.6 °C -17.3 °C 34933.4 hPa Calm   10.3 km/h 92 % 0 mm
19:07 -16.6 °C -17.3 °C 34933.4 hPa SE 5.1 km/h 12.9 km/h 92 % 0 mm
19:12 -16.6 °C -17.3 °C 34933.4 hPa SE 2.6 km/h 12.9 km/h 92 % 0 mm
19:17 -16.6 °C -17.3 °C 34933.4 hPa Calm   12.9 km/h 92 % 0 mm
19:22 -16.6 °C -17.3 °C 34933.4 hPa Calm   10.3 km/h 92 % 0 mm
19:27 -16.6 °C -17.3 °C 34933.4 hPa SE 2.6 km/h 7.7 km/h 92 % 0 mm
19:32 -16.7 °C -17.3 °C 34933.4 hPa SSW 7.7 km/h 7.7 km/h 92 % 0 mm
19:42 -16.7 °C -17.3 °C 34933.4 hPa SSE 2.6 km/h 7.7 km/h 92 % 0 mm
19:47 -16.7 °C -17.3 °C 34923.2 hPa Calm   10.3 km/h 92 % 0 mm
19:52 -16.7 °C -17.3 °C 34923.2 hPa SE 5.1 km/h 10.3 km/h 92 % 0 mm
19:57 -16.7 °C -17.3 °C 34923.2 hPa SE 5.1 km/h 10.3 km/h 92 % 0 mm
20:02 -16.7 °C -17.3 °C 34923.2 hPa South 10.3 km/h 10.3 km/h 92 % 0 mm
20:07 -16.7 °C -17.3 °C 34923.2 hPa SE 5.1 km/h 15.6 km/h 92 % 0 mm
20:12 -16.7 °C -17.3 °C 34923.2 hPa SE 5.1 km/h 15.6 km/h 92 % 0 mm
20:17 -16.7 °C -17.3 °C 34923.2 hPa East 5.1 km/h 15.6 km/h 92 % 0 mm
20:27 -16.7 °C -17.2 °C 34923.2 hPa ESE 7.7 km/h 12.9 km/h 93 % 0 mm
20:32 -16.7 °C -17.2 °C 34923.2 hPa Calm   12.9 km/h 93 % 0 mm
20:42 -16.7 °C -17.3 °C 34909.7 hPa Calm   10.3 km/h 93 % 0 mm
20:47 -16.7 °C -17.3 °C 34909.7 hPa SSE 5.1 km/h 7.7 km/h 93 % 0 mm
20:57 -16.7 °C -17.3 °C 34909.7 hPa SSE 7.7 km/h 12.9 km/h 93 % 0 mm
21:02 -16.7 °C -17.3 °C 34909.7 hPa Calm   12.9 km/h 93 % 0 mm
21:07 -16.7 °C -17.3 °C 34909.7 hPa Calm   12.9 km/h 93 % 0 mm
21:12 -16.8 °C -17.3 °C 34909.7 hPa SSE 2.6 km/h 12.9 km/h 93 % 0 mm
21:17 -16.8 °C -17.3 °C 34909.7 hPa South 5.1 km/h 10.3 km/h 93 % 0 mm
21:22 -16.8 °C -17.3 °C 34909.7 hPa South 5.1 km/h 12.9 km/h 93 % 0 mm
21:27 -16.8 °C -17.4 °C 34909.7 hPa Calm   15.6 km/h 93 % 0 mm
21:32 -16.8 °C -17.4 °C 34909.7 hPa South 7.7 km/h 15.6 km/h 93 % 0 mm
21:42 -16.8 °C -17.3 °C 34909.7 hPa SE 5.1 km/h 12.9 km/h 94 % 0 mm
21:47 -16.9 °C -17.4 °C 34909.7 hPa Calm   12.9 km/h 94 % 0 mm
21:52 -16.9 °C -17.4 °C 34909.7 hPa SSW 2.6 km/h 10.3 km/h 94 % 0 mm
21:57 -16.9 °C -17.4 °C 34899.5 hPa SSW 5.1 km/h 15.6 km/h 94 % 0 mm
22:02 -17 °C -17.5 °C 34899.5 hPa South 2.6 km/h 15.6 km/h 94 % 0 mm
22:07 -17 °C -17.5 °C 34899.5 hPa SSE 2.6 km/h 15.6 km/h 94 % 0 mm
22:12 -17 °C -17.5 °C 34889.3 hPa SE 2.6 km/h 15.6 km/h 94 % 0 mm
22:17 -17.1 °C -17.6 °C 34899.5 hPa South 10.3 km/h 15.6 km/h 94 % 0 mm
22:22 -17.1 °C -17.6 °C 34899.5 hPa Calm   18.2 km/h 94 % 0 mm
22:27 -17.1 °C -17.6 °C 34889.3 hPa SE 2.6 km/h 18.2 km/h 94 % 0 mm
22:32 -17.1 °C -17.6 °C 34889.3 hPa SE 5.1 km/h 18.2 km/h 94 % 0 mm
22:42 -17.1 °C -17.5 °C 34889.3 hPa SSW 10.3 km/h 18.2 km/h 95 % 0 mm
23:02 -17.1 °C -17.5 °C 34889.3 hPa South 5.1 km/h 12.9 km/h 95 % 0 mm
23:07 -17.1 °C -17.5 °C 34889.3 hPa SSE 2.6 km/h 12.9 km/h 95 % 0 mm
23:12 -17.2 °C -17.6 °C 34875.8 hPa SE 2.6 km/h 15.6 km/h 95 % 0 mm
23:17 -17.2 °C -17.6 °C 34875.8 hPa SW 2.6 km/h 15.6 km/h 95 % 0 mm
23:22 -17.2 °C -17.6 °C 34875.8 hPa SSE 2.6 km/h 15.6 km/h 95 % 0 mm
23:27 -17.2 °C -17.6 °C 34875.8 hPa SW 2.6 km/h 15.6 km/h 95 % 0 mm
23:32 -17.2 °C -17.6 °C 34875.8 hPa SSE 2.6 km/h 15.6 km/h 95 % 0 mm
23:37 -17.2 °C -17.6 °C 34875.8 hPa SSW 5.1 km/h 15.6 km/h 95 % 0 mm
23:42 -17.3 °C -17.7 °C 34875.8 hPa South 2.6 km/h 18.2 km/h 95 % 0 mm
23:47 -17.3 °C -17.7 °C 34875.8 hPa SSE 2.6 km/h 18.2 km/h 95 % 0 mm
23:52 -17.3 °C -17.7 °C 34865.6 hPa SSE 5.1 km/h 18.2 km/h 95 % 0 mm
23:57 -17.3 °C -17.7 °C 34865.6 hPa SSW 2.6 km/h 12.9 km/h 95 % 0 mm
Meteo18
Compliments of Weather Underground - 4 mb

Script developed by  Jim McMurry - jmcmurry@mwt.net Adapted for the template by  Wim van der Kuil - Leuven-Template.eu

You find our weather info also at:

European Weather Network

Weather Underground

Equipment we use:

Weather-station
Davis Vue

Weather-program
Meteobridge

Weather-server
Raspberry PI 2 B+

Provider
1 and 1

Davis Vue

Meteobridge

Raspberry PI 2 B+

1 and 1